Tracking 19634 objects as of 22-May-2019
HD Live streaming from Space Station
objects crossing your sky now

SCATHA

Track SCATHA now!
SCATHA is classified as:


NORAD ID: 11256
Int'l Code: 1979-007A
Perigee: 28,041.2 km
Apogee: 42,849.3 km
Inclination: 15.7 °
Period: 1,418.3 minutes
Semi major axis: 41816 km
RCS: 3.2195 m2 (large)
Launch date: January 30, 1979
Source: United States (US)
Launch site: AIR FORCE EASTERN TEST RANGE (AFETR)
aabbcc
Your satellite tracking list
Your tracking list is empty




NASA's NSSDC Master Catalog

Two Line Element Set (TLE):
1 11256U 79007A   19141.81067400 -.00000301  00000-0  00000+0 0  9994
2 11256  15.7301 316.6797 1770615  48.8105 114.9097  1.01527912116058
Source of the keplerian elements: AFSPC